Tracking 19847 objects as of 17-Sep-2019
HD Live streaming from Space Station
objects crossing your sky now

FLOCK 1C 3

Track FLOCK 1C 3 now!
10-day predictions
FLOCK 1C 3 is classified as:


NORAD ID: 40041
Int'l Code: 2014-033AH
Perigee: 596.0 km
Apogee: 616.2 km
Inclination: 97.9 °
Period: 96.7 minutes
Semi major axis: 6977 km
RCS: Unknown
Launch date: June 19, 2014
Source: United States (US)
Launch site: Orenburg, Russia (OREN)
aabbcc
Your satellite tracking list
Your tracking list is empty




NASA's NSSDC Master Catalog

Two Line Element Set (TLE):
1 40041U 14033AH  19259.78550659  .00000445  00000-0  52447-4 0  9990
2 40041  97.9249 183.1028 0014482 106.5289 253.7520 14.89662009284760
Source of the keplerian elements: AFSPC